{"data":{"norad_id":68007,"intl_designator":"2026-039X","name":"STARLINK-36592","alt_names":[],"object_type":"PAYLOAD","status":"ACTIVE","operator":null,"country":"US","launch_date":"2026-02-27","launch_site_code":"AFETR","launch_vehicle":null,"mission":null,"orbit_class":"UNKNOWN","rcs_meters":null,"size_class":null,"mass_kg":null,"dimensions":null,"purposes":["comms"],"wikipedia_slug":null,"has_3d_model":false,"image_url":null,"decayed_at":null,"tle_current":{"epoch":"2026-09-19T16:44:14.375904Z","epoch_age_seconds":129005,"freshness":"FRESH","line1":"1 68007U 26039X   26262.69738861  .00009856  00000+0  36707-3 0  9990","line2":"2 68007  43.0037  33.3332 0002342 275.4506  84.6079 15.27592641 31377","mean_motion":15.27592641,"eccentricity":0.0002342,"inclination_deg":43.0037,"raan_deg":33.3332,"arg_perigee_deg":275.4506,"mean_anomaly_deg":84.6079,"bstar":0.00036707,"rev_number":3137,"period_min":94.26596864576,"perigee_km":481.40436368022,"apogee_km":484.61812551798,"semimajor_km":6861.1482445991,"source":"CELESTRAK","updated_at":"2026-09-20T09:00:43.739358Z"}}}